Grizzly Air Cargo 5379


PABE
Bethel Airport
Bethel, Alaska, US
PAKN
King Salmon Airport
King Salmon, Alaska, US

Activity Log

Date Flight Route Aircraft Duration
No Flights Yet

Route Details

Aircraft Information
Primary: Saab 340AF
Backup: Not Available
Route Data
Distance: 208nm
Sched. Duration: 1h 00m
Avg. Duration: 0h 00m (-100m)
Times Flown: 0
Recm'd Route: BET J123 AKN
Planned Altitude: 21,000ft
Origin Wx: PABE 071553Z 02007KT 10SM OVC050 M07/M09 A2993 RMK AO2 SLP137 T10721089
Dest. Wx: PAKN 071554Z AUTO 08007KT 10SM OVC043 M03/M08 A2990 RMK AO2 SLP126 T10331078 TSNO
Notes:

Financial History
Total Freight: 0lbs
Average Load: 0lbs/flt
Fuel Used: 0lbs
Avg. Fuel Used: 0lbs/flt
Fuel Expense: $0
Avg. Fuel Expense: $0
Avg. Fuel Cost: $0/lbs
Total Gross Income: $0
Pilot Pay: $0
Total Expenses: $0
Total Revenue: $0
Average Revenue: $0